Location: Azul
(36.7830°S, 59.8500°W)
Time: 10:53:19
(UTC-03:00)

ISS - Pass Details

Date: 30 March 2020
Orbit: 416 x 423 km, 51.6° (Epoch: 02 April)

Event Time Altitude Azimuth Distance (km) Brightness Sun altitude
Exits shadow 05:47:53 14° 205° (SSW) 1,299 -1.5 -17.6°
Maximum altitude 05:48:00 14° 203° (SSW) 1,298 -1.4 -17.5°
Drops below altitude 10° 05:49:58 10° 168° (SSE) 1,540 -0.7 -17.1°
Sets 05:52:52 0° 142° (SE) 2,411 0.8 -16.6°
